Starlink 3342

operational
NORAD ID: 50816 Int'l Des: 2022-001 Owner: SPXS Country: US Constellation: starlink
LEOCIRCULAR

About Starlink 3342

Description loading...

Live Position

Loading 3D Globe...

Upcoming Passes

Altitude History

Altitude vs Time

uPlot chart will show altitude changes over time

Two-Line Element Set

1 50816U 22001P 25347.30966152 .00032338 00000-0 20143-2 0 9999
2 50816 53.2140 196.8795 0001756 105.1760 254.9426 15.09315677217366
Epoch: Dec 13, 2025 • Age: 16 hours

Current Status

Altitude 540.1 km
Velocity 7.59 km/s
Sub-Earth Point -3.76°S, 118.66°E
Launch Date Jan 6, 2022
Age 3.9 years
Type internet

Technical Details

Classification Payload
Mass 297.00 kg
Dry Mass 275.00 kg
Total Mass 297.00 kg
Length 0.20 m
Diameter 2.80 m
Span 9.00 m
Shape Box + pan
Manufacturer SPXS
Bus Type Starlink
Phase Status In Orbit
Owner/State SPXS/US

Large Constellations

Loading constellations...